This is the latest recevied weather packets stored in our database for station/object KN6ZYR. If no packets are shown the sender has not sent any weather packets the latest 10 day(s).
| Time | Temp. | Humidity | Pressure | Rain* | Wind** | Luminosity | Snow |
|---|---|---|---|---|---|---|---|
| 1777935040 | 19.44° C | 26% | 1012.3 hPa | 0 mm | - | 591 W/m² | - |
| 1777934736 | 19.44° C | 25% | 1012.4 hPa | 0 mm | - | 484 W/m² | - |
| 1777934434 | 19.44° C | 26% | 1012.6 hPa | 0 mm | - | 626 W/m² | - |
| 1777934131 | 19.44° C | 27% | 1012.8 hPa | 0 mm | - | 645 W/m² | - |
| 1777933826 | 18.89° C | 28% | 1012.5 hPa | 0 mm | - | 634 W/m² | - |
| 1777933523 | 18.89° C | 28% | 1012.8 hPa | 0 mm | - | 624 W/m² | - |
| 1777933221 | 19.44° C | 28% | 1012.8 hPa | 0 mm | - | 624 W/m² | - |
| 1777932918 | 19.44° C | 26% | 1012.9 hPa | 0 mm | - | 634 W/m² | - |
| 1777932615 | 18.33° C | 27% | 1013.2 hPa | 0 mm | - | 654 W/m² | - |
| 1777932311 | 18.89° C | 27% | 1013 hPa | 0 mm | - | 684 W/m² | - |
| 1777932008 | 18.33° C | 29% | 1013.3 hPa | 0 mm | - | 720 W/m² | - |
| 1777931705 | 17.78° C | 31% | 1013.4 hPa | 0 mm | - | 783 W/m² | - |
| 1777931402 | 17.22° C | 32% | 1013.3 hPa | 0 mm | - | 748 W/m² | - |
| 1777931098 | 16.67° C | 32% | 1013.6 hPa | 0 mm | - | 374 W/m² | - |
| 1777930795 | 16.67° C | 33% | 1013.7 hPa | 0 mm | - | 288 W/m² | - |
| 1777930491 | 16.67° C | 33% | 1013.2 hPa | 0 mm | - | 213 W/m² | - |
| 1777930188 | 16.67° C | 34% | 1013.3 hPa | 0 mm | - | 199 W/m² | - |
| 1777929884 | 16.67° C | 30% | 1013.6 hPa | 0 mm | - | 202 W/m² | - |
| 1777929582 | 16.67° C | 29% | 1013.7 hPa | 0 mm | - | 211 W/m² | - |
| 1777929278 | 16.67° C | 32% | 1013.6 hPa | 0 mm | - | 174 W/m² | - |
| 1777928976 | 16.11° C | 33% | 1014 hPa | 0 mm | - | 128 W/m² | - |
| 1777928672 | 16.11° C | 32% | 1014 hPa | 0 mm | - | 104 W/m² | - |
| 1777928369 | 16.11° C | 32% | 1013.7 hPa | 0 mm | - | 91 W/m² | - |
| 1777928067 | 16.11° C | 33% | 1014.1 hPa | 0 mm | - | 92 W/m² | - |
| 1777927765 | 16.11° C | 34% | 1014.1 hPa | 0 mm | - | 96 W/m² | - |
* Rain latest hour (hover to see other rain measurements)
** Current wind speed in m/s (hover to see current wind gust speed)